| time (UTC) | temp F | wind direction | speed MPH | gust MPH | rain 1hr in | rain 24hr in | rain mn in | humidity % | barometer mb |
| 20260505054614 | 63 | 256 | 8.0 | 12.0 | 0.00 | 0.00 | 0.00 | 74 | 1006.1 |
| 20260505053112 | 63 | 233 | 6.0 | 14.0 | 0.00 | 0.00 | 0.00 | 74 | 1006.5 |
| 20260505051611 | 63 | 245 | 9.0 | 17.0 | 0.00 | 0.00 | 0.00 | 73 | 1005.9 |
| 20260505050111 | 63 | 241 | 7.0 | 14.0 | 0.00 | 0.00 | 0.00 | 74 | 1006.0 |
| 20260505041602 | 63 | 231 | 8.0 | 14.0 | 0.00 | 0.00 | 0.00 | 73 | 1006.8 |
| 20260505040103 | 64 | 243 | 7.0 | 13.0 | 0.00 | 0.00 | 0.00 | 73 | 1007.0 |
| 20260505034559 | 64 | 248 | 7.0 | 12.0 | 0.00 | 0.00 | 0.00 | 72 | 1007.1 |
| 20260505033102 | 64 | 163 | 7.0 | 13.0 | 0.00 | 0.00 | 0.00 | 72 | 1007.3 |
| 20260505031556 | 64 | 158 | 4.0 | 11.0 | 0.00 | 0.00 | 0.00 | 71 | 1007.5 |
| 20260505030053 | 65 | 238 | 5.0 | 11.0 | 0.00 | 0.00 | 0.00 | 70 | 1007.3 |
| 20260505024609 | 65 | 257 | 5.0 | 10.0 | 0.00 | 0.00 | 0.00 | 69 | 1007.2 |
| 20260505023052 | 66 | 202 | 5.0 | 10.0 | 0.00 | 0.00 | 0.00 | 69 | 1006.9 |
| 20260505021611 | 66 | 196 | 5.0 | 10.0 | 0.00 | 0.00 | 0.00 | 68 | 1006.8 |
| 20260505020053 | 66 | 233 | 5.0 | 10.0 | 0.00 | 0.00 | 0.00 | 67 | 1006.4 |
| 20260505014558 | 67 | 224 | 6.0 | 10.0 | 0.00 | 0.00 | 0.00 | 67 | 1006.1 |
| 20260505013052 | 67 | 211 | 4.0 | 10.0 | 0.00 | 0.00 | 0.00 | 65 | 1005.9 |
| 20260505011558 | 68 | 234 | 4.0 | 9.0 | 0.00 | 0.00 | 0.00 | 64 | 1005.9 |
| 20260505010055 | 69 | 230 | 3.0 | 10.0 | 0.00 | 0.00 | 0.00 | 63 | 1005.8 |
| 20260505004553 | 70 | 262 | 4.0 | 9.0 | 0.00 | 0.00 | 0.00 | 62 | 1005.6 |
| 20260505003058 | 71 | 240 | 4.0 | 13.0 | 0.00 | 0.00 | 0.00 | 60 | 1005.5 |
| 20260505001556 | 72 | 231 | 6.0 | 12.0 | 0.00 | 0.00 | 0.00 | 57 | 1005.5 |
| 20260505000058 | 74 | 225 | 9.0 | 15.0 | 0.00 | 0.00 | 0.00 | 54 | 1005.6 |
| 20260504234556 | 75 | 257 | 7.0 | 11.0 | 0.00 | 0.00 | 0.00 | 55 | 1005.6 |
| 20260504233101 | 76 | 289 | 8.0 | 14.0 | 0.00 | 0.00 | 0.00 | 55 | 1005.6 |
| 20260504231554 | 76 | 243 | 5.0 | 13.0 | 0.00 | 0.00 | 0.00 | 55 | 1005.7 |
| 20260504230056 | 76 | 222 | 7.0 | 13.0 | 0.00 | 0.00 | 0.00 | 54 | 1005.7 |
| 20260504224555 | 76 | 276 | 9.0 | 19.0 | 0.00 | 0.00 | 0.00 | 55 | 1005.7 |
| 20260504223102 | 76 | 229 | 9.0 | 15.0 | 0.00 | 0.00 | 0.00 | 54 | 1005.8 |
| 20260504221605 | 76 | 229 | 7.0 | 15.0 | 0.00 | 0.00 | 0.00 | 54 | 1005.9 |
| 20260504220129 | 75 | 234 | 8.0 | 18.0 | 0.00 | 0.00 | 0.00 | 56 | 1005.9 |
| 20260504214555 | 76 | 245 | 10.0 | 19.0 | 0.00 | 0.00 | 0.00 | 52 | 1006.0 |
| 20260504213123 | 77 | 254 | 7.0 | 20.0 | 0.00 | 0.00 | 0.00 | 50 | 1006.3 |
| 20260504211554 | 76 | 287 | 11.0 | 19.0 | 0.00 | 0.00 | 0.00 | 54 | 1006.2 |
| 20260504204618 | 76 | 293 | 10.0 | 22.0 | 0.00 | 0.00 | 0.00 | 56 | 1006.6 |
| 20260504203056 | 76 | 260 | 12.0 | 19.0 | 0.00 | 0.00 | 0.00 | 56 | 1006.7 |
| 20260504201612 | 76 | 259 | 10.0 | 20.0 | 0.00 | 0.00 | 0.00 | 54 | 1006.8 |
| 20260504200108 | 77 | 239 | 10.0 | 18.0 | 0.00 | 0.00 | 0.00 | 57 | 1007.1 |
| 20260504194554 | 76 | 237 | 12.0 | 18.0 | 0.00 | 0.00 | 0.00 | 52 | 1007.1 |
| 20260504193059 | 76 | 248 | 10.0 | 20.0 | 0.00 | 0.00 | 0.00 | 53 | 1007.2 |
| 20260504191556 | 76 | 198 | 11.0 | 21.0 | 0.00 | 0.00 | 0.00 | 55 | 1007.3 |
| 20260504190057 | 76 | 277 | 10.0 | 18.0 | 0.00 | 0.00 | 0.00 | 57 | 1007.4 |
| 20260504184600 | 76 | 295 | 10.0 | 20.0 | 0.00 | 0.00 | 0.00 | 56 | 1007.4 |
| 20260504183105 | 76 | 252 | 12.0 | 24.0 | 0.00 | 0.00 | 0.00 | 54 | 1007.5 |
| 20260504181606 | 75 | 259 | 12.0 | 19.0 | 0.00 | 0.00 | 0.00 | 55 | 1007.4 |
| 20260504180100 | 75 | 250 | 12.0 | 25.0 | 0.00 | 0.00 | 0.00 | 57 | 1007.6 |
| 20260504174559 | 74 | 245 | 12.0 | 23.0 | 0.00 | 0.00 | 0.00 | 58 | 1007.9 |
| 20260504173102 | 74 | 307 | 14.0 | 22.0 | 0.00 | 0.00 | 0.00 | 60 | 1007.8 |
| 20260504171606 | 74 | 195 | 9.0 | 20.0 | 0.00 | 0.00 | 0.00 | 59 | 1007.8 |
| 20260504100103 | 58 | 263 | 4.0 | 11.0 | 0.00 | 0.00 | 0.00 | 69 | 1009.9 |
| 20260504081555 | 60 | 249 | 4.0 | 9.0 | 0.00 | 0.00 | 0.00 | 68 | 1010.2 |
| 20260504080107 | 60 | 238 | 6.0 | 10.0 | 0.00 | 0.00 | 0.00 | 67 | 1010.4 |